Hourly Weather Bolshoe Agishevo

Today, 4 August, Wednesday

Time Temperature Precipitation Wind Pressure Humidity
00:00 +18°C° 0.1 mm 2 mps 746 mmHg 84%
01:00 +18°C° 0 mm 2 mps 746 mmHg 85%
02:00 +17°C° 0 mm 2 mps 746 mmHg 85%
03:00 +17°C° 0 mm 2 mps 746 mmHg 85%
04:00 +17°C° 0 mm 2 mps 746 mmHg 85%
05:00 +17°C° 0 mm 2 mps 746 mmHg 85%
06:00 +17°C° 0 mm 2 mps 746 mmHg 84%
07:00 +19°C° 0 mm 2 mps 746 mmHg 75%
08:00 +21°C° 0 mm 3 mps 747 mmHg 66%
09:00 +22°C° 0 mm 3 mps 747 mmHg 54%
10:00 +25°C° 0 mm 3 mps 747 mmHg 48%
11:00 +26°C° 0 mm 3 mps 747 mmHg 42%
12:00 +27°C° 0 mm 3 mps 748 mmHg 36%
13:00 +26°C° 0 mm 3 mps 748 mmHg 37%
14:00 +26°C° 0 mm 3 mps 748 mmHg 38%
15:00 +26°C° 0 mm 3 mps 748 mmHg 39%
16:00 +25°C° 0 mm 3 mps 748 mmHg 43%
17:00 +24°C° 0 mm 2 mps 748 mmHg 46%
18:00 +23°C° 0 mm 2 mps 748 mmHg 50%
19:00 +21°C° 0 mm 2 mps 748 mmHg 54%
20:00 +20°C° 0 mm 2 mps 748 mmHg 57%
21:00 +19°C° 0 mm 1 mps 748 mmHg 61%
22:00 +19°C° 0 mm 1 mps 749 mmHg 62%
23:00 +18°C° 0 mm 1 mps 749 mmHg 63%

Tomorrow, 5 August, Thursday

Time Temperature Precipitation Wind Pressure Humidity
00:00 +18°C° 0 mm 1 mps 749 mmHg 64%
01:00 +18°C° 0 mm 1 mps 749 mmHg 64%
02:00 +16°C° 0 mm 1 mps 749 mmHg 64%
03:00 +15°C° 0 mm 0 mps 749 mmHg 64%
04:00 +16°C° 0 mm 0 mps 749 mmHg 65%
05:00 +16°C° 0 mm 0 mps 750 mmHg 66%
06:00 +16°C° 0 mm 0 mps 750 mmHg 66%
07:00 +18°C° 0 mm 0 mps 750 mmHg 60%
08:00 +20°C° 0 mm 0 mps 750 mmHg 54%
09:00 +22°C° 0 mm 0 mps 750 mmHg 48%
10:00 +23°C° 0 mm 0 mps 750 mmHg 44%
11:00 +24°C° 0 mm 0 mps 750 mmHg 41%
12:00 +27°C° 0 mm 1 mps 750 mmHg 37%
13:00 +27°C° 0 mm 1 mps 749 mmHg 35%
14:00 +28°C° 0 mm 1 mps 749 mmHg 34%
15:00 +28°C° 0 mm 1 mps 749 mmHg 33%
16:00 +28°C° 0 mm 1 mps 749 mmHg 35%
17:00 +27°C° 0 mm 1 mps 749 mmHg 37%
18:00 +27°C° 0 mm 1 mps 748 mmHg 40%
19:00 +25°C° 0 mm 2 mps 748 mmHg 43%
20:00 +24°C° 0 mm 2 mps 748 mmHg 45%
21:00 +21°C° 0 mm 3 mps 748 mmHg 48%
22:00 +21°C° 0 mm 3 mps 748 mmHg 51%
23:00 +20°C° 0 mm 3 mps 748 mmHg 53%

Day after tomorrow, 6 August, Friday

Time Temperature Precipitation Wind Pressure Humidity
00:00 +19°C° 0 mm 3 mps 748 mmHg 56%
01:00 +19°C° 0 mm 3 mps 748 mmHg 57%
02:00 +18°C° 0 mm 3 mps 748 mmHg 59%
03:00 +18°C° 0 mm 3 mps 747 mmHg 60%
04:00 +19°C° 0 mm 4 mps 748 mmHg 59%
05:00 +19°C° 0 mm 4 mps 748 mmHg 57%
06:00 +20°C° 0 mm 4 mps 748 mmHg 56%
07:00 +21°C° 0 mm 5 mps 748 mmHg 51%
08:00 +23°C° 0 mm 5 mps 748 mmHg 47%
09:00 +25°C° 0 mm 5 mps 747 mmHg 43%
10:00 +26°C° 0 mm 5 mps 747 mmHg 42%
11:00 +27°C° 0 mm 4 mps 747 mmHg 41%
12:00 +28°C° 0 mm 4 mps 747 mmHg 40%
13:00 +29°C° 0 mm 4 mps 747 mmHg 37%
14:00 +30°C° 0 mm 4 mps 746 mmHg 34%
15:00 +32°C° 0 mm 4 mps 746 mmHg 31%
16:00 +32°C° 0 mm 4 mps 746 mmHg 33%
17:00 +30°C° 0 mm 4 mps 746 mmHg 35%
18:00 +30°C° 0 mm 4 mps 746 mmHg 37%
19:00 +28°C° 0 mm 4 mps 745 mmHg 41%
20:00 +26°C° 0 mm 4 mps 745 mmHg 45%
21:00 +23°C° 0 mm 4 mps 745 mmHg 49%
22:00 +23°C° 0 mm 4 mps 745 mmHg 49%
23:00 +23°C° 0 mm 4 mps 745 mmHg 49%

7 August, Saturday

Time Temperature Precipitation Wind Pressure Humidity
00:00 +23°C° 0 mm 4 mps 745 mmHg 49%
01:00 +23°C° 0 mm 4 mps 745 mmHg 48%
02:00 +23°C° 0 mm 4 mps 745 mmHg 46%
03:00 +23°C° 0 mm 4 mps 745 mmHg 45%
04:00 +23°C° 0 mm 4 mps 746 mmHg 45%
05:00 +22°C° 0 mm 4 mps 746 mmHg 45%
06:00 +22°C° 0 mm 5 mps 746 mmHg 44%
07:00 +23°C° 0 mm 5 mps 746 mmHg 42%
08:00 +25°C° 0 mm 5 mps 746 mmHg 40%
09:00 +26°C° 0 mm 5 mps 746 mmHg 38%
10:00 +28°C° 0 mm 5 mps 746 mmHg 34%
11:00 +30°C° 0 mm 4 mps 747 mmHg 31%
12:00 +33°C° 0 mm 4 mps 747 mmHg 27%
13:00 +34°C° 0 mm 4 mps 746 mmHg 26%
14:00 +35°C° 0 mm 4 mps 746 mmHg 24%
15:00 +36°C° 0 mm 4 mps 746 mmHg 23%
16:00 +35°C° 0 mm 4 mps 746 mmHg 26%
17:00 +34°C° 0 mm 4 mps 746 mmHg 28%
18:00 +33°C° 0 mm 4 mps 746 mmHg 31%
19:00 +30°C° 0 mm 4 mps 746 mmHg 35%
20:00 +28°C° 0 mm 4 mps 746 mmHg 40%
21:00 +26°C° 0 mm 4 mps 747 mmHg 44%
22:00 +25°C° 0 mm 4 mps 747 mmHg 44%
23:00 +24°C° 0 mm 3 mps 747 mmHg 45%

8 August, Sunday

Time Temperature Precipitation Wind Pressure Humidity
00:00 +22°C° 0 mm 3 mps 747 mmHg 46%
01:00 +22°C° 0 mm 3 mps 747 mmHg 46%
02:00 +21°C° 0 mm 3 mps 747 mmHg 46%
03:00 +20°C° 0 mm 3 mps 747 mmHg 46%
04:00 +20°C° 0 mm 3 mps 747 mmHg 46%
05:00 +21°C° 0 mm 3 mps 747 mmHg 45%
06:00 +21°C° 0 mm 3 mps 747 mmHg 44%
07:00 +24°C° 0 mm 3 mps 747 mmHg 40%
08:00 +26°C° 0 mm 3 mps 747 mmHg 36%
09:00 +28°C° 0 mm 4 mps 747 mmHg 32%
10:00 +30°C° 0 mm 3 mps 747 mmHg 29%
11:00 +33°C° 0 mm 3 mps 747 mmHg 26%
12:00 +34°C° 0 mm 3 mps 747 mmHg 23%
13:00 +34°C° 0 mm 3 mps 747 mmHg 24%
14:00 +34°C° 0 mm 3 mps 747 mmHg 26%
15:00 +34°C° 0 mm 2 mps 747 mmHg 27%
16:00 +32°C° 0 mm 2 mps 747 mmHg 32%
17:00 +30°C° 0 mm 3 mps 747 mmHg 36%
18:00 +29°C° 0 mm 3 mps 747 mmHg 41%
19:00 +28°C° 0 mm 2 mps 747 mmHg 42%
20:00 +27°C° 0 mm 2 mps 747 mmHg 43%
21:00 +26°C° 0 mm 2 mps 747 mmHg 44%
22:00 +26°C° 0 mm 2 mps 747 mmHg 44%
23:00 +26°C° 0 mm 2 mps 747 mmHg 44%

9 August, Monday

Time Temperature Precipitation Wind Pressure Humidity
00:00 +25°C° 0 mm 2 mps 747 mmHg 45%
01:00 +25°C° 0 mm 2 mps 747 mmHg 46%
02:00 +24°C° 0 mm 2 mps 747 mmHg 47%
03:00 +24°C° 0 mm 2 mps 747 mmHg 49%
04:00 +24°C° 0 mm 3 mps 747 mmHg 50%
05:00 +24°C° 0 mm 3 mps 747 mmHg 50%
06:00 +22°C° 0 mm 3 mps 747 mmHg 51%
07:00 +25°C° 0 mm 3 mps 747 mmHg 46%
08:00 +27°C° 0 mm 4 mps 748 mmHg 41%
09:00 +29°C° 0 mm 4 mps 748 mmHg 36%
10:00 +32°C° 0 mm 4 mps 748 mmHg 33%
11:00 +33°C° 0 mm 5 mps 748 mmHg 31%
12:00 +34°C° 0 mm 5 mps 747 mmHg 28%
13:00 +35°C° 0 mm 5 mps 747 mmHg 27%
14:00 +35°C° 0 mm 4 mps 747 mmHg 26%
15:00 +35°C° 0 mm 4 mps 747 mmHg 25%
16:00 +35°C° 0 mm 4 mps 747 mmHg 29%
17:00 +34°C° 0 mm 5 mps 747 mmHg 32%
18:00 +33°C° 0 mm 5 mps 747 mmHg 35%
19:00 +30°C° 0 mm 5 mps 747 mmHg 42%
20:00 +27°C° 0 mm 5 mps 748 mmHg 48%
21:00 +25°C° 0 mm 5 mps 748 mmHg 55%
22:00 +23°C° 0 mm 4 mps 748 mmHg 57%
23:00 +22°C° 0 mm 4 mps 748 mmHg 60%
Show more

We Need Your Consent

Meteoprog and our Service Providers may store and access personal data such as cookies, device identifiers or other similar technologies on your device and process such data to personalise content and ads, as well as provide social media features and to analyse the traffic.

  • Store and/or access information on your device

    Cookies, device identifiers or other information can be stored or accessed on your device for the purposes indicated above.

  • Personalised ads and content, ad and content measurement, audience insights, and products development

    Ads and content can be personalised based on a profile. More data can be added to better personalise ads and content. Ad and content performance can be measured. Insights about the audience who saw the ads and content can be derived. Such data can be used to develop or improve user’s experience, systems and software.

By clicking ‘I Agree’ you will allow the use of indicated cookies, device identifiers, web beacons or other similar technologies. Your settings can be changed in the browser on your device.

For certain purposes, legitimate interests may be relied on, rather than consent. You can read more about this in our Privacy and Cookie Policy.